Location: Baumgarten
(49.0970°N, 12.7493°E)
Time: 01:53:09
(UTC+00:00)

EO 1 Del DPAF - Pass Details

Date: 05 July 2020
Orbit: 512 x 518 km, 98.0° (Epoch: 04 August)

Event Time Altitude Azimuth Distance (km) Brightness Sun altitude
Rises 22:36:41 0° 8° (N) 2,646 8.2 -17.8°
Reaches altitude 10° 22:38:51 10° 2° (N) 1,752 7.1 -17.8°
Maximum altitude 22:42:27 44° 290° (WNW) 719 4.1 -17.9°
Enters shadow 22:44:15 25° 232° (SW) 1,075 4.5 -17.9°
